When you browse on this site, cookies collect data to enhance your experience and personalize the content and advertising you see.
Visit our Privacy Policy to learn more. By continuing to use the site, you agree to this use of cookies and data.
  • In Romania
  • List of Countries
  • For 7 days
  • Water Temperature
  • Weather Map
  • Weather Widgets
  • user-avatar
    Login

    Hourly Weather Rio Branco

    Today, 21 January, Tuesday

    Time Temperature Precipitation Wind Pressure Humidity
    00:00 +26°C° 0 mm 1 mps 744 mmHg 93%
    01:00 +26°C° 0 mm 1 mps 743 mmHg 93%
    02:00 +26°C° 0.6 mm 1 mps 743 mmHg 94%
    03:00 +26°C° 0.6 mm 1 mps 743 mmHg 95%
    04:00 +26°C° 0.6 mm 1 mps 743 mmHg 95%
    05:00 +26°C° 0.3 mm 1 mps 744 mmHg 95%
    06:00 +26°C° 0.3 mm 1 mps 744 mmHg 95%
    07:00 +27°C° 0.3 mm 1 mps 745 mmHg 94%
    08:00 +29°C° 0 mm 1 mps 745 mmHg 85%
    09:00 +31°C° 0 mm 2 mps 745 mmHg 75%
    10:00 +34°C° 0 mm 2 mps 745 mmHg 65%
    11:00 +35°C° 0.4 mm 2 mps 744 mmHg 64%
    12:00 +35°C° 0.4 mm 2 mps 743 mmHg 62%
    13:00 +36°C° 0.4 mm 2 mps 742 mmHg 61%
    14:00 +36°C° 0.1 mm 2 mps 741 mmHg 60%
    15:00 +35°C° 0.1 mm 1 mps 740 mmHg 60%
    16:00 +35°C° 0.1 mm 1 mps 740 mmHg 59%
    17:00 +33°C° 0.1 mm 1 mps 740 mmHg 65%
    18:00 +31°C° 0.1 mm 1 mps 740 mmHg 70%
    19:00 +30°C° 0.1 mm 1 mps 741 mmHg 76%
    20:00 +29°C° 0 mm 1 mps 741 mmHg 79%
    21:00 +28°C° 0 mm 1 mps 742 mmHg 82%
    22:00 +28°C° 0 mm 2 mps 742 mmHg 85%
    23:00 +27°C° 1.4 mm 1 mps 742 mmHg 89%

    Tomorrow, 22 January, Wednesday

    Time Temperature Precipitation Wind Pressure Humidity
    00:00 +26°C° 1.4 mm 1 mps 742 mmHg 93%
    01:00 +26°C° 1.4 mm 1 mps 742 mmHg 97%
    02:00 +26°C° 2.9 mm 1 mps 742 mmHg 97%
    03:00 +26°C° 2.9 mm 1 mps 742 mmHg 98%
    04:00 +25°C° 2.9 mm 1 mps 742 mmHg 98%
    05:00 +26°C° 0.4 mm 1 mps 742 mmHg 98%
    06:00 +24°C° 0.4 mm 0 mps 743 mmHg 97%
    07:00 +24°C° 0.4 mm 0 mps 743 mmHg 97%
    08:00 +27°C° 0.7 mm 1 mps 744 mmHg 94%
    09:00 +28°C° 0.7 mm 1 mps 744 mmHg 90%
    10:00 +30°C° 0.7 mm 1 mps 744 mmHg 87%
    11:00 +30°C° 1.4 mm 1 mps 743 mmHg 83%
    12:00 +31°C° 1.4 mm 1 mps 742 mmHg 79%
    13:00 +32°C° 1.4 mm 1 mps 741 mmHg 75%
    14:00 +32°C° 0.8 mm 1 mps 741 mmHg 76%
    15:00 +32°C° 0.8 mm 1 mps 740 mmHg 77%
    16:00 +30°C° 0.8 mm 0 mps 740 mmHg 78%
    17:00 +29°C° 0.2 mm 0 mps 740 mmHg 81%
    18:00 +27°C° 0.2 mm 0 mps 741 mmHg 85%
    19:00 +28°C° 0.2 mm 1 mps 741 mmHg 88%
    20:00 +27°C° 3 mm 1 mps 742 mmHg 91%
    21:00 +27°C° 3 mm 2 mps 743 mmHg 94%
    22:00 +26°C° 3 mm 2 mps 743 mmHg 97%
    23:00 +25°C° 1.6 mm 2 mps 743 mmHg 97%

    Day after tomorrow, 23 January, Thursday

    Time Temperature Precipitation Wind Pressure Humidity
    00:00 +25°C° 1.6 mm 2 mps 743 mmHg 96%
    01:00 +24°C° 1.6 mm 2 mps 742 mmHg 96%
    02:00 +24°C° 0.9 mm 1 mps 742 mmHg 97%
    03:00 +24°C° 0.9 mm 1 mps 742 mmHg 97%
    04:00 +24°C° 0.9 mm 1 mps 742 mmHg 98%
    05:00 +24°C° 0.1 mm 1 mps 743 mmHg 97%
    06:00 +25°C° 0.1 mm 1 mps 743 mmHg 96%
    07:00 +23°C° 0.1 mm 0 mps 744 mmHg 95%
    08:00 +26°C° 0.1 mm 1 mps 744 mmHg 91%
    09:00 +27°C° 0.1 mm 1 mps 745 mmHg 88%
    10:00 +29°C° 0.1 mm 1 mps 745 mmHg 84%
    11:00 +29°C° 1.1 mm 1 mps 745 mmHg 84%
    12:00 +29°C° 1.1 mm 1 mps 744 mmHg 85%
    13:00 +30°C° 1.1 mm 1 mps 743 mmHg 86%
    14:00 +30°C° 0.7 mm 1 mps 743 mmHg 86%
    15:00 +29°C° 0.7 mm 1 mps 742 mmHg 86%
    16:00 +29°C° 0.7 mm 1 mps 742 mmHg 87%
    17:00 +28°C° 1.9 mm 1 mps 742 mmHg 90%
    18:00 +27°C° 1.9 mm 1 mps 743 mmHg 94%
    19:00 +26°C° 1.9 mm 1 mps 743 mmHg 97%
    20:00 +26°C° 1.1 mm 1 mps 743 mmHg 97%
    21:00 +25°C° 1.1 mm 1 mps 744 mmHg 98%
    22:00 +25°C° 1.1 mm 1 mps 744 mmHg 98%
    23:00 +25°C° 0.1 mm 1 mps 744 mmHg 98%

    24 January, Friday

    Time Temperature Precipitation Wind Pressure Humidity
    00:00 +25°C° 0.1 mm 1 mps 743 mmHg 97%
    01:00 +23°C° 0.1 mm 0 mps 743 mmHg 97%
    02:00 +23°C° 0 mm 0 mps 743 mmHg 97%
    03:00 +23°C° 0 mm 0 mps 743 mmHg 97%
    04:00 +23°C° 0 mm 0 mps 743 mmHg 96%
    05:00 +23°C° 0 mm 0 mps 743 mmHg 96%
    06:00 +23°C° 0 mm 0 mps 744 mmHg 96%
    07:00 +24°C° 0 mm 0 mps 745 mmHg 96%
    08:00 +25°C° 0 mm 0 mps 745 mmHg 91%
    09:00 +26°C° 0 mm 0 mps 745 mmHg 86%
    10:00 +27°C° 0 mm 0 mps 745 mmHg 81%
    11:00 +27°C° 0 mm 0 mps 744 mmHg 82%
    12:00 +29°C° 0 mm 1 mps 744 mmHg 83%
    13:00 +28°C° 0 mm 1 mps 743 mmHg 84%
    14:00 +29°C° 0 mm 1 mps 742 mmHg 81%
    15:00 +29°C° 0 mm 1 mps 741 mmHg 79%
    16:00 +28°C° 0 mm 0 mps 741 mmHg 77%
    17:00 +27°C° 0 mm 0 mps 741 mmHg 79%
    18:00 +26°C° 0 mm 0 mps 741 mmHg 82%
    19:00 +24°C° 0 mm 0 mps 742 mmHg 85%
    20:00 +24°C° 0 mm 0 mps 743 mmHg 84%
    21:00 +24°C° 0 mm 0 mps 743 mmHg 84%
    22:00 +24°C° 0 mm 0 mps 744 mmHg 84%
    23:00 +23°C° 0 mm 0 mps 744 mmHg 85%

    25 January, Saturday

    Time Temperature Precipitation Wind Pressure Humidity
    00:00 +23°C° 0 mm 0 mps 743 mmHg 85%
    01:00 +23°C° 0 mm 0 mps 743 mmHg 86%
    02:00 +23°C° 0 mm 0 mps 743 mmHg 88%
    03:00 +23°C° 0 mm 0 mps 743 mmHg 89%
    04:00 +23°C° 0 mm 0 mps 743 mmHg 90%
    05:00 +25°C° 0 mm 1 mps 743 mmHg 90%
    06:00 +26°C° 0 mm 1 mps 744 mmHg 90%
    07:00 +26°C° 0 mm 1 mps 745 mmHg 89%
    08:00 +27°C° 0 mm 2 mps 745 mmHg 85%
    09:00 +29°C° 0 mm 2 mps 746 mmHg 81%
    10:00 +30°C° 0 mm 2 mps 746 mmHg 77%
    11:00 +30°C° 0.9 mm 2 mps 745 mmHg 77%
    12:00 +31°C° 0.9 mm 2 mps 745 mmHg 78%
    13:00 +32°C° 0.9 mm 2 mps 744 mmHg 78%
    14:00 +31°C° 1.5 mm 2 mps 743 mmHg 83%
    15:00 +30°C° 1.5 mm 2 mps 743 mmHg 87%
    16:00 +29°C° 1.5 mm 1 mps 742 mmHg 92%
    17:00 +29°C° 0.1 mm 1 mps 743 mmHg 93%
    18:00 +28°C° 0.1 mm 1 mps 743 mmHg 94%
    19:00 +27°C° 0.1 mm 1 mps 743 mmHg 96%
    20:00 +27°C° 0 mm 1 mps 744 mmHg 96%
    21:00 +26°C° 0 mm 1 mps 745 mmHg 96%
    22:00 +26°C° 0 mm 1 mps 745 mmHg 96%
    23:00 +26°C° 0 mm 1 mps 745 mmHg 96%

    26 January, Sunday

    Time Temperature Precipitation Wind Pressure Humidity
    00:00 +24°C° 0 mm 0 mps 744 mmHg 95%
    01:00 +24°C° 0 mm 0 mps 744 mmHg 95%
    02:00 +23°C° 0 mm 0 mps 744 mmHg 95%
    03:00 +23°C° 0 mm 0 mps 744 mmHg 95%
    04:00 +25°C° 0 mm 1 mps 744 mmHg 95%
    05:00 +25°C° 0 mm 1 mps 744 mmHg 95%
    06:00 +25°C° 0 mm 1 mps 745 mmHg 95%
    07:00 +25°C° 0 mm 1 mps 745 mmHg 95%
    08:00 +26°C° 0 mm 1 mps 745 mmHg 94%
    09:00 +26°C° 0 mm 1 mps 745 mmHg 93%
    10:00 +27°C° 0 mm 1 mps 746 mmHg 91%
    11:00 +27°C° 0 mm 1 mps 745 mmHg 88%
    12:00 +28°C° 0 mm 1 mps 744 mmHg 85%
    13:00 +28°C° 0 mm 1 mps 744 mmHg 82%
    14:00 +28°C° 0 mm 1 mps 743 mmHg 82%
    15:00 +29°C° 0 mm 1 mps 742 mmHg 82%
    16:00 +29°C° 0 mm 1 mps 741 mmHg 81%
    17:00 +28°C° 0 mm 1 mps 741 mmHg 84%
    18:00 +27°C° 0 mm 1 mps 742 mmHg 87%
    19:00 +26°C° 0 mm 1 mps 742 mmHg 91%
    20:00 +26°C° 0 mm 1 mps 743 mmHg 91%
    21:00 +26°C° 0 mm 1 mps 743 mmHg 91%
    22:00 +26°C° 0 mm 1 mps 744 mmHg 91%
    23:00 +26°C° 0 mm 1 mps 744 mmHg 93%
    Show more